Location: Qu�bec
(46.8000°N, 71.2500°W)
Time: 19:31:33
(UTC-05:00)

N. Korean satellite - Visible Passes

Search period start: 23 February 2018 00:00
Search period end: 05 March 2018 00:00
Orbit: 459 x 514 km, 97.2° (Epoch: 23 February)

Date Brightness Start Highest point End Pass type
(mag) Time Alt. Az. Time Alt. Az. Time Alt. Az.
23 Feb 9.3 05:49:23 10° NE 05:52:32 26° E 05:55:42 10° SSE visible
23 Feb 8.3 18:01:31 10° SSW 18:04:45 37° W 18:08:04 10° NNW visible
24 Feb 10.2 05:26:29 10° NE 05:28:37 15° E 05:30:45 10° SE visible
25 Feb 10.4 18:49:57 10° WSW 18:51:05 11° W 18:52:12 10° WNW visible
26 Feb 9.6 18:24:25 10° SW 18:27:06 21° W 18:29:50 10° NW visible
27 Feb 9.4 05:47:52 10° NE 05:51:01 26° E 05:54:11 10° SSE visible
27 Feb 8.2 17:59:55 10° SSW 18:03:12 39° W 18:06:34 10° NNW visible
28 Feb 10.3 05:24:59 10° NE 05:27:05 14° E 05:29:11 10° SE visible
01 Mar 10.3 18:48:09 10° WSW 18:49:30 12° W 18:50:51 10° WNW visible
02 Mar 9.5 18:22:45 10° SW 18:25:31 22° W 18:28:21 10° NW visible
03 Mar 9.5 05:46:19 10° NE 05:49:28 25° E 05:52:36 10° SSE visible
03 Mar 8.2 17:58:17 10° S 18:01:36 41° W 18:05:01 10° NNW visible
04 Mar 10.3 05:23:28 10° ENE 05:25:31 14° E 05:27:33 10° ESE visible
